Regional Weather Roundup
Issued by NWS

Home | Current Version | Previous Version | Graphics & Text | Print | Product List | Glossary On
Versions: 1 2 3 4 5 6 7 8 9 10 11 12 13 14 15 16 17 18 19 20 21 22 23 24 25 26 27 28 29 30 31 32 33 34 35 36 37 38 39 40 41 42 43 44 45 46 47 48 49
000
ASUS45 KSLC 292110
RWRUT

UTAH REGIONAL WEATHER ROUNDUP
NATIONAL WEATHER SERVICE SALT LAKE CITY UT
300 PM MDT MON SEP 29 2014

UTZ001>011-023>025-292200-

NORTHERN UTAH

CITY           SKY/WX    TMP DP  RH WIND       PRES   REMARKS
HILL AFB       PTSUNNY   62  40  45 W7        29.98F
LOGAN          NOT AVBL
OGDEN          MOSUNNY   63  41  44 W5        29.96F
PROVO AIRPORT  NOT AVBL
SALT LAKE CITY PTSUNNY   65  44  46 SW10      29.96F
VERNAL         MOSUNNY   57  42  57 SW7       29.98F
WENDOVER       CLOUDY    59  41  51 NW6       29.98F
HEBER CITY     PTSUNNY   63  34  34 SW8       29.97F
WEST JORDAN    CLOUDY    54  43  66 SE13G18   30.00R

$$

UTZ012>022-026-027-292200-

SOUTHERN UTAH

CITY           SKY/WX    TMP DP  RH WIND       PRES   REMARKS
BRYCE CANYON   PTSUNNY   53  32  44 W13G21    30.10F
CEDAR CITY       N/A     60  37  42 VRB7      30.03F
MILFORD        CLOUDY    63  38  39 S12       30.00F
MOAB/CYNLANDS  PTSUNNY   56  41  57 SW7       29.99S
PRICE          PTSUNNY   53  42  66 S8        30.02F
ST GEORGE      MOCLDY    73  39  29 SW6       29.96F
KANAB            N/A     64  36  34 SW9       30.06F

$$

REGIONAL REPORTS     COLORADO/ARIZONA

CITY           SKY/WX    TMP DP  RH WIND       PRES   REMARKS
CRAIG, CO      CLOUDY    57  40  52 NW14      29.98F
GRAND JUNCTION CLOUDY    57  44  62 W8        29.96F
RIFLE          LGT RAIN  52  40  63 VRB7      29.98R
MONTROSE       CLOUDY    49  41  74 E17       30.03F
CORTEZ         TSTM      51  43  74 W16G35    30.04R
PAGE, AZ       NOT AVBL
GRAND CANYON   MOSUNNY   59  35  40 W12       30.10F
KINGMAN        NOT AVBL
FLAGSTAFF      SUNNY     61  30  31 SW12G18   30.12F

$$

REGIONAL REPORTS    NEVADA/IDAHO/WYOMING

CITY           SKY/WX    TMP DP  RH WIND       PRES   REMARKS
LAS VEGAS, NV  MOSUNNY   79  33  19 S3        29.88F
ELY            CLOUDY    51  41  68 E9        30.07S
ELKO           CLOUDY    50  44  80 SW9       30.05S
POCATELLO, ID  PTSUNNY   56  47  71 W15       29.99R
BURLEY         CLOUDY    56  45  66 CALM      29.97F
EVANSTON, WY   PTSUNNY   54  35  48 W21       30.02F
ROCK SPRINGS   PTSUNNY   54  35  48 W13       29.99F

$$


USA.gov is the U.S. government's official web portal to all federal, state and local government web resources and services.